Location: *
(57.8420°S, 159.8600°W)
Time: 12:39:01
(UTC+00:00)

Cosmos 1943 Rocket - Pass Details

Date: 18 May 2021
Orbit: 814 x 842 km, 71.0° (Epoch: 22 June)

Event Time Altitude Azimuth Distance (km) Brightness Sun altitude
Rises 04:07:10 0° 219° (SW) 3,422 5.7 -12.8°
Reaches altitude 10° 04:09:39 10° 215° (SW) 2,488 4.9 -13.1°
Maximum altitude 04:15:21 64° 133° (SE) 945 2.2 -13.8°
Drops below altitude 10° 04:21:01 10° 51° (NE) 2,481 4.3 -14.6°
Enters shadow 04:22:50 - 48° (NE) 3,158 4.8 -14.8°
